Simultaneous Nadir Overpasses (SNOs) Predictions

Prediction of SNOs over PacNW region [( 10.00, 139.50) to ( 22.70, 165.60)] between NOAA-19 and NPP Satellites:

Table of predicted SNOs over PacNW region for the next 30.0 days since TLE Epoch: 1/18/2014
Index Date (NOAA-19) Time (NOAA-19) NOAA-19 Lat,Lon Date (NPP) Time (NPP) NPP Lat,Lon Distance(km) Time Diff (sec)
1 01/26/2014 03:41:32 10.08, 149.40 01/26/2014 03:45:08 8.18, 144.40 588.37 216
2 01/26/2014 16:17:54 21.60, 145.45 01/26/2014 16:17:36 22.50, 141.20 449.79 18
3 01/27/2014 03:34:05 22.68, 149.12 01/27/2014 03:30:28 23.47, 145.52 379.04 217
4 02/08/2014 03:01:57 17.83, 158.13 02/08/2014 03:03:20 16.74, 153.53 502.46 83
5 02/08/2014 15:38:25 13.33, 154.02 02/08/2014 15:35:45 14.12, 150.29 411.90 160
